Meteo orario Alibaevskoe

Oggi, 22 Ottobre, Giovedi

Tempo Temperatura Precipitazioni Vento Pressione Umidità
00:00 -2°C° 0 mm 5 m/s 723 mm Hg 82%
01:00 -2°C° 0 mm 5 m/s 723 mm Hg 81%
02:00 -4°C° 0 mm 6 m/s 724 mm Hg 78%
03:00 -5°C° 0 mm 6 m/s 724 mm Hg 75%
04:00 -5°C° 0 mm 6 m/s 724 mm Hg 73%
05:00 -6°C° 0 mm 6 m/s 724 mm Hg 74%
06:00 -6°C° 0 mm 6 m/s 725 mm Hg 74%
07:00 -6°C° 0 mm 6 m/s 725 mm Hg 75%
08:00 -5°C° 0 mm 6 m/s 725 mm Hg 69%
09:00 -4°C° 0 mm 7 m/s 725 mm Hg 63%
10:00 -3°C° 0 mm 7 m/s 726 mm Hg 56%
11:00 -2°C° 0 mm 7 m/s 726 mm Hg 54%
12:00 -2°C° 0 mm 7 m/s 726 mm Hg 52%
13:00 -2°C° 0 mm 7 m/s 726 mm Hg 50%
14:00 -2°C° 0 mm 7 m/s 726 mm Hg 53%
15:00 -2°C° 0 mm 7 m/s 727 mm Hg 55%
16:00 -3°C° 0 mm 7 m/s 727 mm Hg 57%
17:00 -4°C° 0 mm 6 m/s 727 mm Hg 64%
18:00 -4°C° 0 mm 5 m/s 727 mm Hg 71%
19:00 -4°C° 0 mm 4 m/s 728 mm Hg 77%
20:00 -4°C° 0 mm 4 m/s 728 mm Hg 78%
21:00 -5°C° 0 mm 4 m/s 728 mm Hg 79%
22:00 -5°C° 0 mm 4 m/s 728 mm Hg 80%
23:00 -5°C° 0 mm 4 m/s 728 mm Hg 81%

Domani, 23 Ottobre, Venerdi

Tempo Temperatura Precipitazioni Vento Pressione Umidità
00:00 -5°C° 0 mm 4 m/s 728 mm Hg 81%
01:00 -5°C° 0 mm 4 m/s 728 mm Hg 82%
02:00 -7°C° 0 mm 4 m/s 728 mm Hg 83%
03:00 -7°C° 0 mm 4 m/s 728 mm Hg 84%
04:00 -7°C° 0 mm 4 m/s 729 mm Hg 84%
05:00 -7°C° 0 mm 4 m/s 729 mm Hg 85%
06:00 -6°C° 0 mm 3 m/s 729 mm Hg 86%
07:00 -6°C° 0 mm 3 m/s 729 mm Hg 88%
08:00 -5°C° 0 mm 3 m/s 729 mm Hg 78%
09:00 -4°C° 0 mm 4 m/s 730 mm Hg 69%
10:00 -2°C° 0 mm 4 m/s 730 mm Hg 60%
11:00 -2°C° 0 mm 4 m/s 730 mm Hg 58%
12:00 -1°C° 0 mm 4 m/s 730 mm Hg 56%
13:00 -1°C° 0 mm 4 m/s 730 mm Hg 53%
14:00 -1°C° 0 mm 4 m/s 730 mm Hg 54%
15:00 0°C° 0 mm 3 m/s 730 mm Hg 55%
16:00 0°C° 0 mm 3 m/s 730 mm Hg 56%
17:00 -1°C° 0 mm 3 m/s 730 mm Hg 59%
18:00 -1°C° 0 mm 2 m/s 730 mm Hg 62%
19:00 -2°C° 0 mm 2 m/s 730 mm Hg 64%
20:00 -2°C° 0 mm 2 m/s 730 mm Hg 67%
21:00 -1°C° 0 mm 3 m/s 730 mm Hg 70%
22:00 -1°C° 0 mm 3 m/s 730 mm Hg 73%
23:00 -2°C° 0.3 mm 4 m/s 729 mm Hg 80%

Dopodomani, 24 Ottobre, Sabato

Tempo Temperatura Precipitazioni Vento Pressione Umidità
00:00 -2°C° 0.3 mm 4 m/s 729 mm Hg 88%
01:00 -3°C° 0.3 mm 4 m/s 728 mm Hg 96%
02:00 -2°C° 0.5 mm 4 m/s 728 mm Hg 96%
03:00 -1°C° 0.5 mm 4 m/s 727 mm Hg 97%
04:00 -1°C° 0.5 mm 4 m/s 727 mm Hg 97%
05:00 0°C° 0.3 mm 4 m/s 726 mm Hg 97%
06:00 0°C° 0.3 mm 4 m/s 726 mm Hg 97%
07:00 +1°C° 0.3 mm 5 m/s 725 mm Hg 96%
08:00 +1°C° 0.3 mm 6 m/s 725 mm Hg 94%
09:00 +2°C° 0.3 mm 6 m/s 724 mm Hg 92%
10:00 +2°C° 0.3 mm 7 m/s 724 mm Hg 90%
11:00 +2°C° 0.4 mm 7 m/s 723 mm Hg 88%
12:00 +2°C° 0.4 mm 7 m/s 723 mm Hg 86%
13:00 +3°C° 0.4 mm 7 m/s 722 mm Hg 84%
14:00 +3°C° 0.8 mm 7 m/s 722 mm Hg 87%
15:00 +4°C° 0.8 mm 7 m/s 721 mm Hg 89%
16:00 +5°C° 0.8 mm 7 m/s 721 mm Hg 92%
17:00 +5°C° 0.9 mm 7 m/s 721 mm Hg 92%
18:00 +5°C° 0.9 mm 7 m/s 721 mm Hg 91%
19:00 +6°C° 0.9 mm 7 m/s 721 mm Hg 91%
20:00 +7°C° 0 mm 6 m/s 721 mm Hg 91%
21:00 +7°C° 0 mm 6 m/s 721 mm Hg 90%
22:00 +7°C° 0 mm 6 m/s 722 mm Hg 90%
23:00 +7°C° 0 mm 5 m/s 722 mm Hg 90%

, 25 Ottobre, Domenica

Tempo Temperatura Precipitazioni Vento Pressione Umidità
00:00 +7°C° 0 mm 5 m/s 722 mm Hg 90%
01:00 +6°C° 0 mm 4 m/s 723 mm Hg 91%
02:00 +6°C° 0 mm 4 m/s 723 mm Hg 91%
03:00 +6°C° 0 mm 4 m/s 723 mm Hg 92%
04:00 +5°C° 0 mm 4 m/s 724 mm Hg 92%
05:00 +5°C° 0 mm 4 m/s 724 mm Hg 93%
06:00 +6°C° 0 mm 4 m/s 724 mm Hg 93%
07:00 +6°C° 0 mm 4 m/s 724 mm Hg 94%
08:00 +6°C° 0 mm 4 m/s 725 mm Hg 89%
09:00 +7°C° 0 mm 4 m/s 725 mm Hg 84%
10:00 +8°C° 0 mm 4 m/s 725 mm Hg 78%
11:00 +8°C° 0 mm 4 m/s 725 mm Hg 74%
12:00 +10°C° 0 mm 4 m/s 725 mm Hg 70%
13:00 +10°C° 0 mm 4 m/s 725 mm Hg 66%
14:00 +10°C° 0 mm 4 m/s 724 mm Hg 70%
15:00 +9°C° 0 mm 3 m/s 724 mm Hg 75%
16:00 +9°C° 0 mm 3 m/s 724 mm Hg 79%
17:00 +9°C° 0 mm 2 m/s 724 mm Hg 83%
18:00 +8°C° 0 mm 2 m/s 724 mm Hg 87%
19:00 +9°C° 0 mm 1 m/s 723 mm Hg 91%
20:00 +8°C° 0.7 mm 2 m/s 723 mm Hg 93%
21:00 +8°C° 0.7 mm 2 m/s 722 mm Hg 95%
22:00 +8°C° 0.7 mm 2 m/s 721 mm Hg 97%
23:00 +8°C° 1.6 mm 3 m/s 721 mm Hg 96%

25 Ottobre, Domenica

Tempo Temperatura Precipitazioni Vento Pressione Umidità
00:00 +7°C° 0 mm 5 m/s 722 mm Hg 90%
01:00 +6°C° 0 mm 4 m/s 723 mm Hg 91%
02:00 +6°C° 0 mm 4 m/s 723 mm Hg 91%
03:00 +6°C° 0 mm 4 m/s 723 mm Hg 92%
04:00 +5°C° 0 mm 4 m/s 724 mm Hg 92%
05:00 +5°C° 0 mm 4 m/s 724 mm Hg 93%
06:00 +6°C° 0 mm 4 m/s 724 mm Hg 93%
07:00 +6°C° 0 mm 4 m/s 724 mm Hg 94%
08:00 +6°C° 0 mm 4 m/s 725 mm Hg 89%
09:00 +7°C° 0 mm 4 m/s 725 mm Hg 84%
10:00 +8°C° 0 mm 4 m/s 725 mm Hg 78%
11:00 +8°C° 0 mm 4 m/s 725 mm Hg 74%
12:00 +10°C° 0 mm 4 m/s 725 mm Hg 70%
13:00 +10°C° 0 mm 4 m/s 725 mm Hg 66%
14:00 +10°C° 0 mm 4 m/s 724 mm Hg 70%
15:00 +9°C° 0 mm 3 m/s 724 mm Hg 75%
16:00 +9°C° 0 mm 3 m/s 724 mm Hg 79%
17:00 +9°C° 0 mm 2 m/s 724 mm Hg 83%
18:00 +8°C° 0 mm 2 m/s 724 mm Hg 87%
19:00 +9°C° 0 mm 1 m/s 723 mm Hg 91%
20:00 +8°C° 0.7 mm 2 m/s 723 mm Hg 93%
21:00 +8°C° 0.7 mm 2 m/s 722 mm Hg 95%
22:00 +8°C° 0.7 mm 2 m/s 721 mm Hg 97%
23:00 +8°C° 1.6 mm 3 m/s 721 mm Hg 96%

26 Ottobre, Lunedi

Tempo Temperatura Precipitazioni Vento Pressione Umidità
00:00 +8°C° 1.6 mm 4 m/s 720 mm Hg 95%
01:00 +8°C° 1.6 mm 4 m/s 719 mm Hg 93%
02:00 +8°C° 0.6 mm 5 m/s 718 mm Hg 93%
03:00 +8°C° 0.6 mm 6 m/s 716 mm Hg 93%
04:00 +8°C° 0.6 mm 6 m/s 715 mm Hg 93%
05:00 +8°C° 0.3 mm 6 m/s 715 mm Hg 92%
06:00 +8°C° 0.3 mm 6 m/s 714 mm Hg 90%
07:00 +9°C° 0.3 mm 6 m/s 713 mm Hg 89%
08:00 +8°C° 0.2 mm 6 m/s 713 mm Hg 87%
09:00 +8°C° 0.2 mm 6 m/s 713 mm Hg 85%
10:00 +7°C° 0.2 mm 6 m/s 713 mm Hg 83%
11:00 +5°C° 0.2 mm 8 m/s 714 mm Hg 83%
12:00 +3°C° 0.2 mm 10 m/s 715 mm Hg 83%
13:00 0°C° 0.2 mm 13 m/s 715 mm Hg 82%
14:00 0°C° 0 mm 12 m/s 716 mm Hg 78%
15:00 +1°C° 0 mm 11 m/s 717 mm Hg 74%
16:00 0°C° 0 mm 10 m/s 718 mm Hg 70%
17:00 0°C° 0 mm 10 m/s 719 mm Hg 69%
18:00 -1°C° 0 mm 9 m/s 719 mm Hg 68%
19:00 -2°C° 0 mm 8 m/s 720 mm Hg 67%
20:00 -2°C° 0 mm 8 m/s 720 mm Hg 69%
21:00 -3°C° 0 mm 7 m/s 720 mm Hg 71%
22:00 -3°C° 0 mm 7 m/s 721 mm Hg 72%
23:00 -3°C° 0 mm 7 m/s 721 mm Hg 77%

27 Ottobre, Martedi

Tempo Temperatura Precipitazioni Vento Pressione Umidità
00:00 -4°C° 0 mm 7 m/s 721 mm Hg 81%
01:00 -4°C° 0 mm 7 m/s 722 mm Hg 86%
02:00 -3°C° 0.1 mm 7 m/s 722 mm Hg 81%
03:00 -3°C° 0.1 mm 7 m/s 723 mm Hg 76%
04:00 -2°C° 0.1 mm 7 m/s 723 mm Hg 71%
05:00 -3°C° 0 mm 6 m/s 724 mm Hg 71%
06:00 -3°C° 0 mm 6 m/s 724 mm Hg 71%
07:00 -3°C° 0 mm 6 m/s 725 mm Hg 72%
08:00 -2°C° 0 mm 6 m/s 726 mm Hg 68%
09:00 -2°C° 0 mm 6 m/s 726 mm Hg 64%
10:00 -1°C° 0 mm 7 m/s 727 mm Hg 60%
11:00 +1°C° 0 mm 6 m/s 728 mm Hg 59%
12:00 +1°C° 0 mm 6 m/s 728 mm Hg 58%
13:00 +2°C° 0 mm 6 m/s 729 mm Hg 57%
14:00 +2°C° 0 mm 6 m/s 729 mm Hg 60%
15:00 +1°C° 0 mm 6 m/s 730 mm Hg 62%
16:00 +1°C° 0 mm 5 m/s 730 mm Hg 65%
17:00 0°C° 0 mm 5 m/s 731 mm Hg 68%
18:00 -1°C° 0 mm 5 m/s 732 mm Hg 72%
19:00 -2°C° 0 mm 5 m/s 732 mm Hg 76%
20:00 -2°C° 0 mm 5 m/s 733 mm Hg 76%
21:00 -3°C° 0 mm 4 m/s 733 mm Hg 77%
22:00 -2°C° 0 mm 3 m/s 733 mm Hg 77%
23:00 -2°C° 0 mm 3 m/s 734 mm Hg 76%
Mostrare altro

Abbiamo bisogno del tuo consenso

Meteoprog e i nostri fornitori di servizi possono memorizzare e accedere a dati personali come cookie, identificatori di dispositivi o altre tecnologie simili sul tuo dispositivo e possono elaborare tali dati per personalizzare i contenuti e gli annunci, nonché fornire funzionalità dei social media e analizzarne il traffico.

  • Archiviare e/o accedere alle informazioni sul tuo dispositivo

    Cookie, identificatori di dispositivi o altre informazioni possono essere memorizzati o resi accessibili sul tuo dispositivo per le finalità sopra indicate.

  • Annunci e contenuti personalizzati, misurazione di annunci e contenuti, approfondimenti sul pubblico e sviluppo di prodotti

    Gli annunci e i contenuti possono essere personalizzati in base a un profilo. È possibile aggiungere più dati per personalizzare meglio annunci e contenuti. È possibile misurare il rendimento degli annunci e dei contenuti. È possibile ricavare informazioni sul pubblico che ha visto gli annunci e i contenuti. Tali dati possono essere utilizzati per sviluppare o migliorare l'esperienza, i sistemi e il software dell'utente.

Cliccando su “Accetto”, acconsenti all'uso di cookie, identificatori di dispositivo, web beacon o altre tecnologie simili. Puoi modificare le impostazioni nel browser del tuo dispositivo.

Per determinati scopi, è possibile fare affidamento su interessi legali, piuttosto che sul consenso. Puoi approfondire questo argomento consultando la nostra Informativa sulla privacy e sui cookie.